{"data":{"norad_id":67425,"epoch":"2026-05-25T00:53:32.383104Z","epoch_age_seconds":65006,"freshness":"FRESH","line1":"1 67425U 26005X   26145.03718036  .00012349  00000+0  45737-3 0  9990","line2":"2 67425  43.0008 166.7453 0001405 272.5129  87.5561 15.27591656 20372","mean_motion":15.27591656,"eccentricity":0.0001405,"inclination_deg":43.0008,"raan_deg":166.7453,"arg_perigee_deg":272.5129,"mean_anomaly_deg":87.5561,"bstar":0.00045737,"rev_number":2037,"period_min":94.266029429006,"perigee_km":482.0502022616,"apogee_km":483.97818574712,"semimajor_km":6861.1511940044,"source":"CELESTRAK","updated_at":"2026-05-25T13:38:21.557002Z"}}